Wind_Speed
22 22 23 24 25 26 27 26 27 24 23 21 24 27 28 29 29 30 31 32 34 35 37 38 39 40 41 41 42 42 42 42 42 42 42 42 42 41 41 40 39 38 37 36
22 23 23 23 23 24 25 25 25 25 21 21 25 26 27 28 29 29 30 31 32 33 34 35 35 36 37 39 39 39 39 40 41 40 40 40 39 38 37 36 35 35 34 34
22 23 23 22 22 24 24 24 25 24 21 24 25 25 26 27 28 29 30 31 31 32 33 34 34 34 34 35 36 37 37 37 37 36 36 36 35 34 33 33 33 32 32 31
21 22 22 21 21 23 23 23 25 24 23 25 25 25 25 25 25 27 29 30 31 31 32 32 33 32 32 32 33 33 33 33 33 33 32 32 31 31 31 31 30 29 29 29
20 21 20 20 20 21 21 21 23 22 22 23 24 24 23 24 25 26 27 28 29 29 29 30 30 30 30 30 30 30 30 30 30 30 29 29 29 28 28 28 27 27 27 26
19 20 19 19 20 20 20 21 21 21 21 21 21 21 22 24 24 25 26 26 27 27 26 27 27 27 27 27 27 27 27 27 27 27 27 27 26 26 26 26 25 25 25 25
19 19 18 19 19 19 20 19 18 18 19 19 19 19 21 21 21 22 22 23 24 25 25 25 25 25 26 25 25 25 26 26 26 26 26 26 25 25 25 24 24 24 24 25
19 19 18 19 19 19 19 18 18 18 18 18 18 18 19 19 20 20 21 22 22 23 23 23 24 24 25 25 25 25 25 25 25 25 25 25 25 25 24 24 24 24 25 25
20 19 19 19 19 19 19 19 19 19 18 18 18 18 19 19 19 20 20 21 21 21 22 23 23 23 24 25 25 25 24 24 25 25 25 25 25 25 25 25 25 25 26 26
21 21 21 20 20 20 20 20 20 19 19 19 19 19 19 19 20 20 20 20 21 21 22 23 23 23 24 25 26 26 26 25 25 25 26 26 26 26 26 26 26 27 27 28
23 23 23 22 22 21 21 21 21 21 21 21 20 20 20 20 20 21 22 22 22 22 23 23 23 25 25 25 25 26 27 27 27 27 27 26 27 27 27 27 28 28 29 29
25 25 25 24 24 24 23 23 22 22 22 23 23 23 23 23 22 22 23 23 23 24 25 24 25 25 25 25 26 26 27 27 28 28 28 28 28 29 29 30 30 31 31 31
28 27 26 25 25 25 25 25 24 24 23 23 24 24 24 25 25 25 25 25 25 26 26 26 26 26 26 26 26 27 27 28 28 29 29 29 30 30 30 31 31 32 32 33
30 29 28 27 27 27 27 26 26 26 25 25 25 25 25 25 26 26 27 27 27 28 28 28 28 28 28 28 28 28 28 29 29 30 30 31 31 32 32 32 33 33 33 34
30 30 29 28 28 28 28 27 27 28 28 27 27 27 27 27 27 28 28 28 29 29 30 30 30 30 30 29 29 30 30 30 30 30 31 31 32 32 33 33 34 35 35 35
27 28 28 27 27 27 28 28 28 29 28 28 28 28 28 29 29 30 30 30 30 30 30 31 31 31 32 31 31 31 31 31 32 32 32 32 32 33 33 34 35 35 35 36
24 25 26 26 25 26 27 28 28 29 28 28 28 28 28 28 29 29 30 30 30 30 30 30 30 31 31 32 32 32 32 32 33 33 33 33 33 34 34 34 34 34 35 36
22 24 26 27 27 27 28 28 28 28 28 28 28 28 28 28 28 28 28 29 29 29 30 30 30 31 31 32 32 32 33 33 34 34 34 34 34 34 34 34 34 35 36 36
22 24 25 26 27 27 27 27 28 28 28 28 28 28 28 28 27 27 27 27 27 27 28 29 29 30 30 31 31 32 32 33 34 34 35 35 35 35 35 35 36 36 36 37
23 23 24 25 25 25 25 25 25 26 26 27 27 28 28 28 28 28 28 27 27 27 28 28 28 29 30 30 30 31 32 32 33 33 34 35 35 35 36 36 36 36 37 37
24 24 24 23 23 23 23 23 24 25 25 25 25 25 26 26 27 27 27 27 27 27 27 27 27 28 28 29 29 30 31 31 32 33 33 34 35 35 35 36 36 36 37 37
25 25 25 25 24 24 24 24 24 24 24 24 25 25 25 25 26 26 26 26 26 25 25 26 26 27 27 28 28 29 30 30 31 31 32 32 33 33 34 34 34 35 35 35
27 26 26 26 26 25 25 25 25 25 25 25 25 25 25 25 25 25 25 25 25 25 25 25 25 26 26 27 27 28 28 29 29 30 30 31 31 32 32 32 32 33 33 33
30 29 28 28 27 27 27 26 26 26 26 26 26 26 26 26 26 25 25 25 25 25 25 25 25 26 26 27 27 27 28 28 28 29 29 30 30 31 31 31 31 32 32 33
32 32 31 30 29 29 29 28 28 29 29 28 28 28 28 27 27 26 26 26 26 26 26 26 26 27 27 27 28 28 28 28 28 28 28 28 28 29 29 29 30 31 31 32
34 33 33 32 32 31 31 30 30 30 31 30 29 29 28 28 28 27 26 26 26 27 27 27 27 28 27 27 27 27 27 27 27 27 27 27 27 27 28 28 29 29 30 30
36 35 34 34 33 33 32 31 30 30 30 30 31 31 30 30 29 29 28 28 28 27 27 27 27 27 27 27 27 27 27 27 27 28 28 28 28 28 28 28 29 29 30 31
Wind_Direction
228 231 234 237 239 243 248 253 255 253 253 250 252 250 248 246 244 243 242 242 243 245 247 249 250 250 251 252 253 254 255 257 259 261 263 265 267 269 270 271 272 274 276 278
234 238 240 241 243 247 250 254 256 255 252 250 249 250 249 246 243 241 241 242 243 244 245 247 249 250 251 252 253 254 256 257 258 260 262 264 266 267 268 269 271 273 275 277
237 241 243 244 246 249 252 255 258 258 254 252 253 253 251 248 245 244 244 245 245 245 245 247 248 250 251 252 253 255 256 257 258 260 261 263 263 264 266 268 270 271 274 276
243 246 249 251 250 253 256 258 259 258 256 255 256 254 252 251 250 249 248 248 248 248 248 249 249 250 251 251 252 253 255 255 256 257 259 260 261 263 264 266 268 270 272 275
246 248 250 254 255 254 255 257 258 258 257 257 257 257 255 252 250 250 249 248 248 249 250 250 250 250 250 250 250 252 253 253 254 255 257 259 260 262 263 265 267 269 272 275
249 251 252 252 254 255 255 256 257 259 259 259 258 256 251 249 249 249 249 249 249 250 251 252 251 250 249 249 250 251 252 253 254 255 257 258 260 261 262 263 266 269 272 276
250 252 253 254 253 254 255 257 259 260 260 259 257 253 250 250 251 251 250 250 249 250 251 251 250 249 249 250 250 252 253 255 255 256 257 257 259 260 261 264 267 270 273 277
251 253 253 254 255 255 256 258 258 260 260 259 259 256 254 253 253 252 251 251 250 249 250 250 249 249 250 251 252 253 254 255 256 256 257 258 259 261 263 265 268 272 275 278
251 253 254 254 255 255 255 257 258 259 260 259 258 258 256 256 255 254 253 251 249 249 249 250 250 251 251 252 254 254 255 256 257 257 257 259 261 262 264 266 270 274 277 280
250 252 253 254 255 256 257 258 258 258 258 259 258 257 257 258 258 256 254 251 251 252 252 252 252 253 255 256 256 256 257 258 259 259 260 261 262 263 265 268 272 275 278 281
250 250 252 254 256 257 258 259 259 259 259 259 259 259 259 259 258 257 255 253 254 254 255 256 256 256 257 259 260 260 259 260 261 261 262 263 264 266 268 270 273 276 279 282
251 251 252 254 256 257 258 259 260 260 260 260 260 260 261 260 259 259 257 256 257 257 257 258 259 258 259 261 262 263 263 263 264 264 265 266 266 268 270 273 275 277 280 282
252 252 253 254 256 257 258 259 260 261 261 261 261 261 261 260 260 260 260 260 260 260 259 260 260 259 261 263 264 265 266 266 266 267 267 268 269 270 272 274 277 279 281 284
253 253 253 254 255 257 258 259 259 260 261 261 261 261 261 261 261 261 261 262 262 261 261 261 262 262 263 263 264 265 266 267 268 269 269 270 271 272 274 276 278 280 282 284
255 254 254 254 256 257 258 259 260 261 261 261 261 262 263 263 262 263 263 263 264 264 263 262 262 263 263 264 265 265 266 267 269 270 271 271 272 273 274 276 278 280 282 284
257 255 254 255 257 257 259 260 260 261 261 261 262 263 264 264 264 264 264 264 265 265 264 263 263 262 263 263 264 266 267 268 269 270 271 273 274 275 276 277 279 281 282 284
258 256 255 257 258 260 260 261 261 260 260 260 262 264 265 265 265 265 265 265 266 266 265 264 264 264 264 264 264 265 267 268 269 271 272 273 274 275 277 278 279 281 282 284
263 260 258 259 261 263 262 261 261 260 261 262 262 264 265 265 266 267 267 267 267 266 265 265 265 266 266 266 266 266 266 267 269 270 272 272 273 274 276 278 279 280 282 284
268 264 262 262 262 263 263 262 261 260 260 261 262 262 263 264 266 268 269 269 268 267 266 266 267 267 268 268 268 268 268 268 270 270 271 271 272 273 275 276 278 280 281 284
271 269 267 263 261 262 263 261 260 260 260 261 262 262 263 264 265 267 267 269 269 268 268 267 268 268 268 268 268 269 270 270 271 271 272 272 273 273 274 275 277 279 281 283
273 271 268 264 261 261 261 262 262 261 260 261 262 263 264 265 266 267 268 268 269 270 270 269 268 268 269 270 270 271 271 272 272 273 274 274 274 274 275 276 277 278 280 282
275 272 268 265 263 261 261 261 262 262 261 262 264 265 265 266 266 267 267 267 268 269 270 270 270 269 270 271 272 272 272 273 274 275 275 276 276 276 276 277 278 279 281 282
274 271 269 265 263 261 261 260 260 261 261 262 263 264 264 265 266 268 268 266 266 268 270 271 271 271 272 273 273 274 274 274 274 275 275 276 277 277 277 278 279 280 282 284
271 268 266 264 262 260 259 259 260 260 262 263 263 264 265 265 266 268 268 267 266 267 270 272 272 272 273 275 275 276 277 277 276 276 277 278 278 278 279 279 280 282 283 285
269 266 264 262 261 260 260 260 260 261 262 263 263 264 265 266 266 267 268 268 268 269 271 273 273 274 275 276 276 277 278 278 278 278 279 280 281 281 282 282 282 283 284 286
269 266 263 262 261 260 260 260 261 261 261 261 262 262 264 265 267 267 267 268 270 272 273 273 274 275 275 276 277 277 278 279 278 279 280 282 283 283 284 284 285 285 286 288
268 265 263 261 260 259 259 260 260 261 261 260 260 260 262 264 265 266 267 270 272 273 274 275 275 276 276 276 277 278 279 279 279 279 280 281 282 284 284 285 285 286 288 289
Height
5637 5639 5641 5643 5645 5647 5648 5650 5651 5654 5655 5658 5657 5657 5658 5660 5662 5664 5665 5667 5669 5671 5673 5675 5677 5679 5682 5684 5686 5688 5690 5692 5694 5695 5696 5697 5698 5698 5698 5698 5697 5697 5696 5694
5633 5635 5636 5638 5640 5642 5643 5644 5645 5647 5649 5650 5649 5650 5651 5652 5654 5656 5658 5659 5661 5663 5665 5667 5669 5671 5673 5675 5677 5679 5681 5682 5684 5685 5687 5687 5688 5688 5688 5688 5688 5687 5687 5686
5629 5630 5632 5635 5636 5636 5638 5639 5639 5640 5643 5642 5643 5643 5644 5646 5647 5649 5650 5652 5653 5655 5657 5659 5661 5663 5665 5666 5668 5670 5672 5673 5675 5676 5677 5678 5678 5679 5679 5679 5679 5678 5678 5677
5624 5626 5628 5632 5631 5631 5632 5633 5633 5634 5635 5636 5636 5637 5638 5640 5641 5642 5643 5644 5646 5647 5649 5651 5653 5655 5656 5658 5660 5661 5663 5665 5666 5667 5668 5669 5670 5670 5670 5670 5670 5670 5669 5668
5620 5621 5623 5625 5625 5626 5626 5627 5627 5628 5629 5629 5630 5631 5632 5633 5634 5635 5636 5637 5639 5640 5642 5644 5645 5647 5649 5650 5652 5654 5655 5657 5658 5659 5660 5661 5661 5662 5662 5662 5662 5662 5661 5660
5615 5616 5618 5621 5620 5620 5622 5622 5622 5622 5623 5623 5624 5625 5626 5626 5627 5628 5630 5631 5632 5634 5635 5637 5638 5640 5642 5643 5645 5646 5648 5649 5650 5651 5652 5653 5654 5654 5654 5655 5654 5654 5653 5653
5610 5611 5613 5614 5615 5616 5618 5618 5617 5617 5618 5618 5619 5620 5620 5621 5622 5623 5624 5625 5627 5628 5629 5631 5632 5634 5635 5637 5638 5640 5641 5642 5643 5644 5645 5646 5646 5647 5647 5647 5647 5647 5646 5645
5605 5606 5610 5609 5609 5611 5612 5612 5612 5612 5613 5613 5614 5614 5615 5616 5617 5618 5619 5620 5621 5622 5624 5625 5626 5628 5629 5630 5632 5633 5634 5635 5636 5637 5638 5639 5639 5640 5640 5640 5640 5639 5638 5638
5601 5604 5603 5603 5604 5605 5606 5606 5607 5607 5608 5608 5609 5610 5610 5611 5612 5612 5613 5614 5616 5617 5618 5619 5620 5622 5623 5624 5625 5626 5628 5628 5629 5630 5631 5631 5632 5632 5632 5632 5632 5632 5631 5630
5595 5596 5597 5598 5598 5599 5600 5601 5602 5602 5603 5603 5604 5605 5605 5606 5607 5608 5608 5609 5610 5611 5612 5613 5615 5616 5617 5618 5619 5620 5621 5622 5622 5623 5624 5624 5625 5625 5625 5625 5624 5624 5623 5622
5588 5590 5591 5592 5593 5594 5595 5595 5596 5597 5597 5598 5599 5599 5600 5601 5601 5602 5603 5604 5605 5606 5607 5607 5608 5609 5610 5611 5612 5613 5614 5614 5615 5616 5616 5617 5617 5617 5617 5617 5616 5616 5615 5614
5583 5584 5585 5586 5587 5587 5588 5589 5590 5591 5591 5592 5593 5593 5594 5595 5595 5596 5597 5598 5599 5599 5600 5601 5602 5602 5603 5604 5605 5606 5606 5607 5608 5608 5608 5609 5609 5609 5609 5608 5608 5607 5606 5605
5575 5577 5578 5580 5580 5581 5582 5583 5583 5584 5585 5586 5586 5587 5587 5588 5589 5590 5590 5591 5592 5592 5593 5594 5595 5595 5596 5597 5598 5598 5599 5599 5600 5600 5600 5600 5600 5600 5600 5600 5599 5598 5597 5595
5567 5569 5571 5572 5573 5574 5574 5575 5576 5577 5578 5578 5579 5580 5580 5581 5581 5582 5583 5584 5584 5585 5585 5586 5587 5587 5588 5589 5590 5590 5590 5591 5591 5591 5591 5591 5591 5591 5591 5590 5590 5588 5587 5586
5559 5561 5563 5564 5565 5566 5567 5568 5569 5570 5570 5571 5571 5572 5573 5573 5574 5574 5575 5575 5576 5576 5577 5577 5578 5579 5579 5580 5581 5581 5581 5582 5582 5582 5582 5582 5582 5582 5581 5580 5580 5578 5577 5576
5550 5552 5554 5556 5557 5558 5559 5560 5561 5561 5562 5563 5563 5564 5564 5565 5565 5565 5566 5566 5567 5567 5568 5568 5569 5569 5570 5571 5571 5572 5572 5572 5572 5572 5572 5572 5572 5571 5571 5570 5569 5568 5567 5565
5544 5544 5546 5548 5549 5550 5551 5551 5552 5553 5553 5554 5555 5555 5556 5556 5556 5556 5557 5557 5558 5558 5558 5559 5559 5560 5560 5561 5561 5562 5562 5562 5562 5562 5562 5562 5562 5561 5560 5560 5559 5557 5556 5554
5538 5538 5539 5540 5541 5541 5542 5542 5543 5544 5545 5545 5546 5546 5547 5547 5547 5548 5548 5548 5548 5549 5549 5549 5549 5550 5550 5551 5551 5551 5552 5552 5552 5552 5551 5551 5551 5551 5550 5549 5548 5547 5545 5543
5532 5532 5532 5533 5533 5532 5532 5533 5534 5535 5536 5536 5537 5538 5538 5539 5539 5539 5539 5539 5539 5539 5540 5540 5540 5540 5540 5540 5541 5541 5541 5541 5541 5541 5541 5540 5540 5540 5539 5538 5537 5536 5534 5532
5526 5525 5525 5525 5524 5524 5525 5525 5526 5526 5527 5527 5528 5529 5529 5530 5530 5531 5531 5531 5531 5531 5531 5531 5531 5531 5531 5531 5531 5531 5531 5531 5530 5530 5530 5529 5529 5529 5528 5527 5526 5524 5523 5521
5519 5518 5518 5517 5517 5517 5517 5518 5518 5518 5519 5519 5520 5520 5521 5521 5522 5522 5522 5522 5522 5522 5522 5522 5522 5522 5522 5522 5521 5521 5521 5520 5520 5520 5519 5519 5518 5517 5516 5515 5514 5513 5511 5510
5511 5511 5510 5510 5510 5510 5510 5510 5511 5511 5511 5512 5512 5512 5513 5513 5513 5514 5514 5514 5514 5513 5513 5513 5513 5513 5513 5512 5512 5512 5511 5511 5510 5510 5509 5508 5507 5507 5505 5504 5503 5502 5500 5499
5503 5502 5502 5502 5502 5502 5502 5502 5502 5503 5503 5503 5504 5504 5504 5505 5505 5505 5505 5505 5505 5505 5505 5504 5504 5504 5504 5503 5503 5502 5502 5501 5500 5500 5499 5498 5497 5496 5495 5494 5493 5491 5490 5488
5493 5493 5493 5492 5492 5493 5493 5493 5494 5494 5495 5495 5495 5496 5496 5496 5497 5497 5496 5496 5496 5496 5496 5496 5496 5495 5495 5495 5494 5493 5493 5492 5491 5490 5489 5488 5487 5486 5485 5484 5483 5481 5480 5478
5482 5482 5482 5482 5483 5483 5483 5484 5484 5485 5486 5486 5487 5487 5487 5488 5488 5488 5488 5488 5488 5488 5488 5487 5487 5487 5486 5486 5485 5484 5483 5483 5482 5481 5480 5479 5478 5477 5476 5474 5473 5472 5470 5468
5469 5470 5470 5471 5471 5472 5473 5474 5474 5475 5476 5476 5477 5478 5478 5479 5479 5479 5479 5479 5479 5479 5479 5478 5478 5478 5477 5477 5476 5475 5474 5474 5473 5472 5471 5470 5469 5468 5467 5465 5464 5462 5461 5459
5456 5457 5457 5458 5459 5461 5462 5463 5464 5464 5465 5466 5467 5468 5468 5469 5470 5470 5470 5470 5470 5470 5470 5469 5469 5469 5468 5467 5467 5466 5465 5465 5464 5463 5462 5461 5460 5459 5458 5456 5455 5453 5451 5449